Surface/Precipitation History
02/22/2017 20:36  to  2/23/2017 20:36
Change End Date:
Date/Time
(MST)
Sf
Temp Chem Water Layer Surface Precipitation
Sfc Pvt Sub Frz Factor Pct Dpth DpthThk IcePct Cond Salin FI Type Intens Accum Rate
02/23/2017 20:30 Ice Watch 24.3F - 31F - 20 - - - - 0 mhos 0 - None None - -
02/23/2017 20:29 Ice Watch 24.3F - 31F - 20 - - - - 0 mhos 0 - None None - -
02/23/2017 20:19 Ice Watch 24.6F - 31F - 5 - - - - 0 mhos 0 - None None - -
02/23/2017 20:15 Ice Watch 24.6F - 31F - 5 - - - - 0 mhos 0 - None None - -
02/23/2017 20:09 Ice Watch 24.6F - 31F - 10 - - - - 0 mhos 0 - None None - -
02/23/2017 20:00 Ice Watch 25.0F - 31F - 10 - - - - 0 mhos 0 - None None - -
02/23/2017 19:59 Ice Watch 25.0F - 31F - 10 - - - - 0 mhos 0 - None None - -
02/23/2017 19:49 Ice Watch 25.3F - 31F - 10 - - - - 0 mhos 0 - None None - -
02/23/2017 19:45 Ice Watch 25.3F - 31F - 10 - - - - 0 mhos 0 - None None - -
02/23/2017 19:39 Ice Watch 25.5F - 31F - 10 - - - - 0 mhos 0 - None None - -
02/23/2017 19:30 Ice Watch 25.7F - 31F - 10 - - - - 0 mhos 0 - None None - -
02/23/2017 19:29 Ice Watch 25.9F - 31F - 10 - - - - 0 mhos 0 - None None - -
02/23/2017 19:19 Ice Watch 26.4F - 31F - 15 - - - - 0 mhos 0 - None None - -
02/23/2017 19:15 Ice Watch 26.6F - 31F - 15 - - - - 0 mhos 0 - None None - -
02/23/2017 19:09 Ice Watch 26.8F - 31F - 15 - - - - 0 mhos 0 - None None - -
Date/Time
(MST)
Sf
Temp Chem Water Layer Surface Precipitation
Sfc Pvt Sub Frz Factor Pct Dpth DpthThk IcePct Cond Salin FI Type Intens Accum Rate
02/23/2017 19:00 Ice Watch 27.3F - 31F - 10 - - - - 0 mhos 0 - None None - -
02/23/2017 18:59 Ice Watch 27.3F - 31F - 10 - - - - 0 mhos 0 - None None - -
02/23/2017 18:49 Ice Watch 28.0F - 31F - 10 - - - - 0 mhos 0 - None None - -
02/23/2017 18:45 Ice Watch 28.0F - 31F - 10 - - - - 0 mhos 0 - None None - -
02/23/2017 18:39 Ice Watch 28.2F - 31F - 5 - - - - 0 mhos 0 - None None - -
02/23/2017 18:30 Ice Watch 28.6F - 31F - 5 - - - - 0 mhos 0 - None None - -
02/23/2017 18:29 Ice Watch 28.6F - 31F - 5 - - - - 0 mhos 0 - None None - -
02/23/2017 18:19 Ice Watch 29.1F - 31F - 5 - - - - 0 mhos 0 - None None - -
02/23/2017 18:15 Ice Watch 28.9F - 31F - 5 - - - - 0 mhos 0 - None None - -
02/23/2017 18:09 Ice Watch 29.1F - 31F - 5 - - - - 0 mhos 0 - None None - -
02/23/2017 18:00 Ice Watch 29.5F - 31F - 5 - - - - 0 mhos 0 - None None - -
02/23/2017 17:59 Ice Watch 29.5F - 31F - 5 - - - - 0 mhos 0 - None None - -
02/23/2017 17:49 Ice Watch 30.2F - 31F - 5 - - - - 0 mhos 0 - None None - -
02/23/2017 17:45 Ice Watch 30.4F - 31F - 5 - - - - 0 mhos 0 - None None - -
02/23/2017 17:38 Ice Watch 30.7F - 31F - 5 - - - - 0 mhos 0 - None None - -
Date/Time
(MST)
Sf
Temp Chem Water Layer Surface Precipitation
Sfc Pvt Sub Frz Factor Pct Dpth DpthThk IcePct Cond Salin FI Type Intens Accum Rate
02/23/2017 17:30 Dry 31.5F - 31F - - - - - - 0 mhos 0 - None None - -
02/23/2017 17:28 Dry 31.5F - 31F - - - - - - 0 mhos 0 - None None - -
02/23/2017 17:18 Dry 32.5F - 31F - - - - - - 0 mhos 0 - None None - -
02/23/2017 17:15 Dry 32.7F - 31F - - - - - - 0 mhos 0 - None None - -
02/23/2017 17:08 Dry 33.4F - 31F - - - - - - 0 mhos 0 - None None - -
02/23/2017 17:00 Dry 34.3F - 31F - - - - - - 0 mhos 0 - None None - -
02/23/2017 16:58 Dry 34.3F - 31F - - - - - - 0 mhos 0 - None None - -
02/23/2017 16:48 Dry 35.1F - 31F - - - - - - 0 mhos 0 - None None - -
02/23/2017 16:45 Dry 35.4F - 31F - - - - - - 0 mhos 0 - None None - -
02/23/2017 16:38 Dry 36.3F - 31F - - - - - - 0 mhos 0 - None None - -
02/23/2017 16:30 Dry 38.1F - 31F - - - - - - 0 mhos 0 - None None - -
02/23/2017 16:28 Dry 38.3F - 31F - - - - - - 0 mhos 0 - None None - -
02/23/2017 16:18 Dry 40.8F - 31F - - - - - - 0 mhos 0 - None None - -
02/23/2017 16:15 Dry 43.2F - 31F - - - - - - 0 mhos 0 - None None - -
02/23/2017 16:08 Dry 44.8F - 31F - - - - - - 0 mhos 0 - None None - -
Date/Time
(MST)
Sf
Temp Chem Water Layer Surface Precipitation
Sfc Pvt Sub Frz Factor Pct Dpth DpthThk IcePct Cond Salin FI Type Intens Accum Rate
02/23/2017 16:00 Dry 43.7F - 31F - - - - - - 0 mhos 0 - None None - -
02/23/2017 15:58 Dry 44.6F - 31F - - - - - - 0 mhos 0 - None None - -
02/23/2017 15:48 Dry 50.2F - 31F - - - - - - 0 mhos 0 - None None - -
02/23/2017 15:45 Dry 50.0F - 31F - - - - - - 0 mhos 0 - None None - -
02/23/2017 15:38 Dry 51.6F - 31F - - - - - - 0 mhos 1 - None None - -
02/23/2017 15:30 Dry 52.3F - 31F - - - - - - 0 mhos 1 - None None - -
02/23/2017 15:28 Dry 52.0F - 31F - - - - - - 0 mhos 1 - None None - -
02/23/2017 15:18 Dry 52.0F - 31F - - - - - - 0 mhos 3 - None None - -
02/23/2017 15:15 Dry 51.6F - 31F - - - - - - 0 mhos 4 - None None - -
02/23/2017 15:08 Dry 52.0F - 31F - - - - - - 0 mhos 5 - None None - -
02/23/2017 15:00 Dry 50.7F - 31F - - - - - - 0 mhos 9 - None None - -
02/23/2017 14:58 Dry 50.9F - 31F - - - - - - 0 mhos 9 - None None - -
02/23/2017 14:48 Dry 50.2F - 31F - - - - - - 0 mhos 14 - None None - -
02/23/2017 14:45 Dry 49.3F - 31F - - - - - - 0 mhos 17 - None None - -
02/23/2017 14:38 Dry 47.3F - 31F - - - - - - 0 mhos 24 - None None - -
Date/Time
(MST)
Sf
Temp Chem Water Layer Surface Precipitation
Sfc Pvt Sub Frz Factor Pct Dpth DpthThk IcePct Cond Salin FI Type Intens Accum Rate
02/23/2017 14:30 Dry 46.4F - 31F - - - - - - 0 mhos 32 - None None - -
02/23/2017 14:28 Dry 46.4F - 31F - - - - - - 0 mhos 35 - None None - -
02/23/2017 14:17 Dry 46.2F - 31F - - - - - - 1 mhos 50 - None None - -
02/23/2017 14:15 Dry 43.5F - 31F - - - - - - 1 mhos 53 - None None - -
02/23/2017 14:07 Dry 43.5F - 31F - - - - - - 1 mhos 58 - None None - -
02/23/2017 14:01 Dry 43.7F - 31F - - - - - - 1 mhos 64 - None None - -
02/23/2017 13:57 Dry 44.4F - 31F - - - - - - 1 mhos 67 - None None - -
02/23/2017 13:47 Dry 47.8F - 31F - - - - - - 1 mhos 75 - None None - -
02/23/2017 13:45 Dry 47.1F - 31F - - - - - - 1 mhos 78 - None None - -
02/23/2017 13:37 Dry 40.8F - 31F - - - - - - 1 mhos 95 - None None - -
02/23/2017 13:30 Dry 39.9F - 31F - - - - - - 1 mhos 109 - None None - -
02/23/2017 13:27 Dry 41.7F - 31F - - - - - - 1 mhos 115 - None None - -
02/23/2017 13:17 Wet 38.7F - 31F 32F 20 1% 0.00 in - 0% 1 mhos 135 - None None - -
02/23/2017 13:15 Wet 40.1F - 31F 32F 10 1% 0.00 in - 0% 1 mhos 141 - None None - -
02/23/2017 13:07 Wet 38.3F - 31F 32F 15 1% 0.00 in - 0% 2 mhos 157 - None None - -
Date/Time
(MST)
Sf
Temp Chem Water Layer Surface Precipitation
Sfc Pvt Sub Frz Factor Pct Dpth DpthThk IcePct Cond Salin FI Type Intens Accum Rate
02/23/2017 13:00 Wet 39.2F - 31F 32F 60 1% 0.00 in - 0% 2 mhos 165 - Yes - - -
02/23/2017 12:57 Wet 39.2F - 31F 32F 65 1% 0.00 in - 0% 2 mhos 166 - Yes - - -
02/23/2017 12:47 Wet 37.6F - 31F 32F 30 1% 0.00 in - 0% 2 mhos 168 - Yes - - -
02/23/2017 12:45 Wet 37.2F - 31F 32F 5 1% 0.00 in - 0% 2 mhos 168 - Yes - - -
02/23/2017 12:37 Wet 36.1F - 31F 32F 5 1% 0.00 in - 0% 2 mhos 169 - Yes - - -
02/23/2017 12:30 Wet 36.5F - 31F 32F 5 1% 0.00 in - 0% 2 mhos 170 - Yes - - -
02/23/2017 12:27 Wet 36.9F - 31F 32F 5 1% 0.00 in - 0% 2 mhos 167 - Yes - - -
02/23/2017 12:17 Wet 37.8F - 31F 32F 20 1% 0.00 in - 0% 2 mhos 181 - Yes - - -
02/23/2017 12:15 Wet 37.4F - 31F 32F 25 1% 0.00 in - 0% 2 mhos 186 - Yes - - -
02/23/2017 12:07 Wet 36.3F - 31F 32F 25 1% 0.00 in - 0% 2 mhos 194 - Yes - - -
02/23/2017 12:00 Wet 35.2F - 31F 32F 35 1% 0.00 in - 0% 2 mhos 204 - Yes - - -
02/23/2017 11:57 Wet 34.5F - 31F 32F 35 1% 0.00 in - 0% 2 mhos 206 - Yes - - -
02/23/2017 11:47 Wet 33.1F - 31F 32F 30 1% 0.00 in - 0% 2 mhos 183 - Yes - - -
02/23/2017 11:37 Wet 33.4F - 31F 32F 20 1% 0.00 in - 0% 2 mhos 157 - Yes - - -
02/23/2017 11:30 Wet 33.4F - 31F 32F 10 1% 0.00 in - 0% 1 mhos 148 - Yes - - -
Date/Time
(MST)
Sf
Temp Chem Water Layer Surface Precipitation
Sfc Pvt Sub Frz Factor Pct Dpth DpthThk IcePct Cond Salin FI Type Intens Accum Rate
02/23/2017 11:27 Wet 33.3F - 31F 32F 10 1% 0.00 in - 0% 1 mhos 141 - Yes - - -
02/23/2017 11:17 Wet 33.8F - 31F 32F 5 1% 0.00 in - 0% 1 mhos 137 - Yes - - -
02/23/2017 11:15 Wet 33.8F - 31F 32F 5 1% 0.00 in - 0% 1 mhos 136 - Yes - - -
02/23/2017 11:07 Wet 33.6F - 31F 32F 5 1% 0.00 in - 0% 1 mhos 135 - Yes - - -
02/23/2017 10:56 Wet 33.1F - 31F 32F 5 1% 0.00 in - 0% 1 mhos 142 - Yes - - -
02/23/2017 10:46 Wet 32.7F - 31F 32F 5 1% 0.00 in - 0% 1 mhos 142 - Yes - - -
02/23/2017 10:45 Wet 32.5F - 31F 32F 5 1% 0.00 in - 0% 1 mhos 142 - Yes - - -
02/23/2017 10:36 Chemically Wet 31.8F - 31F 32F 5 1% - - 5% 1 mhos 136 - Yes - - -
02/23/2017 10:30 Chemically Wet 31.5F - 31F 32F 5 0% - - 81% 1 mhos 115 - Yes - - -
02/23/2017 10:26 Ice Warning 31.1F - 31F 32F 5 0% - - 87% 1 mhos 114 - Yes - - -
02/23/2017 10:16 Ice Warning 30.7F - 31F 32F 5 0% - - 91% 1 mhos 114 - None None - -
02/23/2017 10:15 Ice Warning 30.7F - 31F 32F 5 0% - - 91% 1 mhos 113 - None None - -
02/23/2017 10:06 Ice Warning 30.2F - 31F 32F 5 0% - - 93% 1 mhos 113 - Yes - - -
02/23/2017 10:00 Ice Warning 30.2F - 31F 32F 5 0% - - 93% 1 mhos 113 - None None - -
02/23/2017 09:56 Ice Warning 30.2F - 31F 32F 5 0% - - 93% 1 mhos 110 - Yes - - -
Date/Time
(MST)
Sf
Temp Chem Water Layer Surface Precipitation
Sfc Pvt Sub Frz Factor Pct Dpth DpthThk IcePct Cond Salin FI Type Intens Accum Rate
02/23/2017 09:46 Ice Warning 30.0F - 31F 32F 5 0% - - 95% 1 mhos 100 - Yes - - -
02/23/2017 09:45 Ice Warning 29.8F - 31F 32F 5 0% - - 95% 1 mhos 99 - Yes - - -
02/23/2017 09:36 Ice Warning 29.3F - 31F 32F 10 0% - - 97% 1 mhos 90 - Yes - - -
02/23/2017 09:30 Ice Warning 29.5F - 31F 32F 5 0% - - 96% 1 mhos 89 - None None - -
02/23/2017 09:26 Ice Warning 29.5F - 31F 32F 5 0% - - 96% 1 mhos 87 - Yes - - -
02/23/2017 09:16 Ice Warning 29.7F - 31F 32F 5 0% - - 96% 1 mhos 87 - None None - -
02/23/2017 09:15 Ice Warning 29.7F - 31F 32F 5 0% - - 96% 1 mhos 87 - None None - -
02/23/2017 09:06 Ice Warning 29.5F - 31F 32F 5 0% - - 96% 1 mhos 86 - None None - -
02/23/2017 09:00 Ice Warning 29.3F - 31F 32F 5 0% - - 97% 1 mhos 86 - Yes - - -
02/23/2017 08:56 Ice Warning 29.5F - 31F 32F 5 0% - - 97% 1 mhos 86 - None None - -
02/23/2017 08:46 Ice Warning 29.1F - 31F 32F 5 0% - - 97% 1 mhos 81 - None None - -
02/23/2017 08:45 Ice Warning 29.1F - 31F 32F 5 0% - - 97% 1 mhos 80 - None None - -
02/23/2017 08:36 Ice Warning 28.8F - 31F 32F 5 0% - - 98% 1 mhos 70 - Yes - - -
02/23/2017 08:26 Ice Warning 28.4F - 31F 32F 5 0% - - 98% 1 mhos 64 - None None - -
02/23/2017 08:16 Ice Warning 28.2F - 31F 32F 5 0% - - 98% 1 mhos 61 - Yes - - -
Date/Time
(MST)
Sf
Temp Chem Water Layer Surface Precipitation
Sfc Pvt Sub Frz Factor Pct Dpth DpthThk IcePct Cond Salin FI Type Intens Accum Rate
02/23/2017 08:15 Ice Warning 28.2F - 31F 32F 5 0% - - 98% 1 mhos 61 - Yes - - -
02/23/2017 08:06 Ice Warning 28.0F - 31F 32F 5 0% - - 98% 1 mhos 59 - None None - -
02/23/2017 08:00 Ice Warning 28.0F - 31F 32F 5 0% - - 98% 1 mhos 68 - Yes - - -
02/23/2017 07:56 Ice Warning 28.0F - 31F 32F 5 0% - - 98% 1 mhos 67 - None None - -
02/23/2017 07:46 Ice Warning 28.0F - 31F 32F 5 0% - - 98% 1 mhos 66 - None None - -
02/23/2017 07:45 Ice Warning 28.0F - 31F 32F 5 0% - - 98% 1 mhos 65 - None None - -
02/23/2017 07:36 Ice Warning 28.0F - 31F 32F 5 0% - - 98% 1 mhos 65 - None None - -
02/23/2017 07:30 Ice Warning 28.0F - 31F 32F 5 0% - - 98% 1 mhos 65 - None None - -
02/23/2017 07:25 Ice Warning 28.0F - 31F 32F 5 0% - - 98% 1 mhos 64 - None None - -
02/23/2017 07:15 Ice Warning 28.0F - 31F 32F 5 0% - - 98% 1 mhos 64 - None None - -
02/23/2017 07:15 Ice Warning 28.0F - 31F 32F 5 0% - - 98% 1 mhos 64 - None None - -
02/23/2017 07:05 Ice Warning 28.0F - 31F 32F 5 0% - - 98% 1 mhos 64 - Yes - - -
02/23/2017 07:00 Ice Warning 28.0F - 31F 32F 5 0% - - 98% 1 mhos 64 - None None - -
02/23/2017 06:55 Ice Warning 28.0F - 31F 32F 5 0% - - 98% 1 mhos 65 - None None - -
02/23/2017 06:45 Ice Warning 28.0F - 31F 32F 5 0% - - 98% 1 mhos 65 - None None - -
Date/Time
(MST)
Sf
Temp Chem Water Layer Surface Precipitation
Sfc Pvt Sub Frz Factor Pct Dpth DpthThk IcePct Cond Salin FI Type Intens Accum Rate
02/23/2017 06:45 Ice Warning 28.0F - 31F 32F 5 0% - - 98% 1 mhos 65 - None None - -
02/23/2017 06:35 Ice Warning 28.0F - 31F 32F 5 0% - - 98% 1 mhos 65 - None None - -
02/23/2017 06:30 Ice Warning 28.0F - 31F 32F 5 0% - - 98% 1 mhos 65 - None None - -
02/23/2017 06:25 Ice Warning 28.0F - 31F 32F 5 0% - - 98% 1 mhos 65 - None None - -
02/23/2017 06:15 Ice Warning 28.0F - 31F 32F 5 0% - - 98% 1 mhos 65 - None None - -
02/23/2017 06:15 Ice Warning 28.0F - 31F 32F 5 0% - - 98% 1 mhos 65 - None None - -
02/23/2017 06:05 Ice Warning 28.0F - 31F 32F 5 0% - - 98% 1 mhos 65 - None None - -
02/23/2017 06:00 Ice Warning 28.0F - 31F 32F 5 0% - - 98% 1 mhos 65 - None None - -
02/23/2017 05:55 Ice Warning 28.0F - 31F 32F 5 0% - - 98% 1 mhos 65 - None None - -
02/23/2017 05:45 Ice Warning 28.0F - 31F 32F 5 0% - - 98% 1 mhos 66 - None None - -
02/23/2017 05:45 Ice Warning 28.0F - 31F 32F 5 0% - - 98% 1 mhos 66 - None None - -
02/23/2017 05:35 Ice Warning 28.0F - 31F 32F 5 0% - - 98% 1 mhos 67 - None None - -
02/23/2017 05:30 Ice Warning 28.0F - 31F 32F 5 0% - - 98% 1 mhos 68 - None None - -
02/23/2017 05:25 Ice Warning 28.0F - 31F 32F 5 0% - - 98% 1 mhos 68 - None None - -
02/23/2017 05:15 Ice Warning 28.0F - 31F 32F 5 0% - - 98% 1 mhos 69 - None None - -
Date/Time
(MST)
Sf
Temp Chem Water Layer Surface Precipitation
Sfc Pvt Sub Frz Factor Pct Dpth DpthThk IcePct Cond Salin FI Type Intens Accum Rate
02/23/2017 05:15 Ice Warning 28.0F - 31F 32F 5 0% - - 98% 1 mhos 69 - None None - -
02/23/2017 05:05 Ice Warning 28.0F - 31F 32F 5 0% - - 98% 1 mhos 71 - None None - -
02/23/2017 05:00 Ice Warning 28.0F - 31F 32F 5 0% - - 98% 1 mhos 72 - None None - -
02/23/2017 04:55 Ice Warning 28.0F - 31F 32F 5 0% - - 98% 1 mhos 72 - None None - -
02/23/2017 04:45 Ice Warning 28.0F - 31F 32F 5 0% - - 98% 1 mhos 72 - None None - -
02/23/2017 04:45 Ice Warning 28.0F - 31F 32F 5 0% - - 98% 1 mhos 72 - None None - -
02/23/2017 04:35 Ice Warning 28.0F - 31F 32F 5 0% - - 98% 1 mhos 73 - None None - -
02/23/2017 04:30 Ice Warning 28.0F - 31F 32F 5 0% - - 98% 1 mhos 73 - None None - -
02/23/2017 04:25 Ice Warning 28.0F - 31F 32F 5 0% - - 98% 1 mhos 73 - None None - -
02/23/2017 04:15 Ice Warning 28.0F - 31F 32F 5 0% - - 98% 1 mhos 75 - None None - -
02/23/2017 04:14 Ice Warning 28.0F - 31F 32F 5 0% - - 98% 1 mhos 75 - None None - -
02/23/2017 04:04 Ice Warning 28.0F - 31F 32F 5 0% - - 98% 1 mhos 75 - None None - -
02/23/2017 04:00 Ice Warning 28.0F - 31F 32F 5 0% - - 98% 1 mhos 75 - None None - -
02/23/2017 03:54 Ice Warning 28.0F - 31F 32F 5 0% - - 98% 1 mhos 75 - None None - -
02/23/2017 03:45 Ice Warning 28.0F - 31F 32F 5 0% - - 98% 1 mhos 76 - None None - -
Date/Time
(MST)
Sf
Temp Chem Water Layer Surface Precipitation
Sfc Pvt Sub Frz Factor Pct Dpth DpthThk IcePct Cond Salin FI Type Intens Accum Rate
02/23/2017 03:44 Ice Warning 28.0F - 31F 32F 5 0% - - 98% 1 mhos 76 - None None - -
02/23/2017 03:34 Ice Warning 28.0F - 31F 32F 5 0% - - 98% 1 mhos 76 - None None - -
02/23/2017 03:30 Ice Warning 28.0F - 31F 32F 5 0% - - 98% 1 mhos 77 - None None - -
02/23/2017 03:24 Ice Warning 28.0F - 31F 32F 5 0% - - 98% 1 mhos 78 - None None - -
02/23/2017 03:15 Ice Warning 28.0F - 31F 32F 5 0% - - 98% 1 mhos 79 - None None - -
02/23/2017 03:14 Ice Warning 28.0F - 31F 32F 5 0% - - 98% 1 mhos 78 - None None - -
02/23/2017 03:04 Ice Warning 28.0F - 31F 32F 5 0% - - 98% 1 mhos 78 - None None - -
02/23/2017 03:00 Ice Warning 28.0F - 31F 32F 5 0% - - 98% 1 mhos 78 - None None - -
02/23/2017 02:54 Ice Warning 27.9F - 31F 32F 5 0% - - 98% 1 mhos 77 - None None - -
02/23/2017 02:45 Ice Warning 27.9F - 31F 32F 5 0% - - 98% 1 mhos 77 - None None - -
02/23/2017 02:44 Ice Warning 27.9F - 31F 32F 5 0% - - 98% 1 mhos 77 - None None - -
02/23/2017 02:34 Ice Warning 27.9F - 31F 32F 5 0% - - 98% 1 mhos 77 - None None - -
02/23/2017 02:30 Ice Warning 27.9F - 31F 32F 5 0% - - 98% 1 mhos 76 - None None - -
02/23/2017 02:24 Ice Warning 27.7F - 31F 32F 5 0% - - 98% 1 mhos 76 - None None - -
02/23/2017 02:15 Ice Warning 27.7F - 31F 32F 5 0% - - 98% 1 mhos 75 - None None - -
Date/Time
(MST)
Sf
Temp Chem Water Layer Surface Precipitation
Sfc Pvt Sub Frz Factor Pct Dpth DpthThk IcePct Cond Salin FI Type Intens Accum Rate
02/23/2017 02:14 Ice Warning 27.7F - 31F 32F 5 0% - - 98% 1 mhos 75 - None None - -
02/23/2017 02:04 Ice Warning 27.5F - 31F 32F 5 0% - - 98% 1 mhos 73 - None None - -
02/23/2017 02:00 Ice Warning 27.3F - 31F 32F 5 0% - - 98% 1 mhos 72 - None None - -
02/23/2017 01:54 Ice Warning 27.3F - 31F 32F 5 0% - - 98% 1 mhos 71 - None None - -
02/23/2017 01:45 Ice Warning 27.1F - 31F 32F 5 0% - - 99% 1 mhos 69 - None None - -
02/23/2017 01:44 Ice Warning 27.3F - 31F 32F 5 0% - - 99% 1 mhos 68 - None None - -
02/23/2017 01:34 Ice Warning 26.8F - 31F 32F 5 0% - - 99% 1 mhos 67 - None None - -
02/23/2017 01:30 Ice Warning 26.8F - 31F 32F 5 0% - - 99% 1 mhos 66 - None None - -
02/23/2017 01:24 Ice Warning 26.8F - 31F 32F 5 0% - - 99% 1 mhos 64 - None None - -
02/23/2017 01:15 Ice Warning 26.4F - 31F 32F 5 0% - - 99% 1 mhos 61 - None None - -
02/23/2017 01:14 Ice Warning 26.4F - 31F 32F 5 0% - - 99% 1 mhos 61 - None None - -
02/23/2017 01:04 Ice Warning 25.9F - 31F 32F 5 0% - - 99% 0 mhos 57 - None None - -
02/23/2017 01:00 Ice Warning 25.7F - 31F 32F 5 0% - - 99% 0 mhos 56 - None None - -
02/23/2017 00:53 Ice Warning 25.3F - 31F 32F 5 0% - - 99% 0 mhos 53 - None None - -
02/23/2017 00:45 Ice Warning 25.7F - 31F 32F 5 0% - - 99% 0 mhos 54 - None None - -
Date/Time
(MST)
Sf
Temp Chem Water Layer Surface Precipitation
Sfc Pvt Sub Frz Factor Pct Dpth DpthThk IcePct Cond Salin FI Type Intens Accum Rate
02/23/2017 00:43 Ice Warning 25.5F - 31F 32F 5 0% - - 99% 0 mhos 54 - None None - -
02/23/2017 00:33 Ice Warning 24.8F - 31F 32F 5 0% - - 99% 0 mhos 50 - None None - -
02/23/2017 00:30 Ice Warning 25.0F - 31F 32F 5 0% - - 99% 0 mhos 50 - None None - -
02/23/2017 00:23 Ice Warning 24.6F - 31F 32F 5 0% - - 99% 0 mhos 48 - None None - -
02/23/2017 00:15 Ice Warning 23.9F - 31F 32F 5 0% - - 99% 0 mhos 43 - None None - -
02/23/2017 00:13 Ice Warning 23.9F - 31F 32F 5 0% - - 99% 0 mhos 44 - None None - -
02/23/2017 00:03 Ice Warning 23.9F - 31F 32F 5 0% - - 99% 0 mhos 44 - None None - -
02/23/2017 00:00 Ice Warning 23.9F - 31F 32F 5 0% - - 99% 0 mhos 44 - None None - -
02/22/2017 23:53 Ice Warning 23.9F - 31F 32F 5 0% - - 99% 0 mhos 45 - None None - -
02/22/2017 23:45 Ice Warning 24.1F - 31F 32F 5 0% - - 99% 0 mhos 45 - None None - -
02/22/2017 23:43 Ice Warning 23.9F - 31F 32F 5 0% - - 99% 0 mhos 46 - None None - -
02/22/2017 23:33 Ice Warning 24.1F - 31F 32F 5 0% - - 99% 0 mhos 47 - None None - -
02/22/2017 23:30 Ice Warning 24.1F - 31F 32F 5 0% - - 99% 0 mhos 47 - None None - -
02/22/2017 23:23 Ice Warning 24.1F - 31F 32F 5 0% - - 99% 0 mhos 48 - None None - -
02/22/2017 23:15 Ice Warning 24.3F - 31F 32F 5 0% - - 99% 0 mhos 49 - None None - -
Date/Time
(MST)
Sf
Temp Chem Water Layer Surface Precipitation
Sfc Pvt Sub Frz Factor Pct Dpth DpthThk IcePct Cond Salin FI Type Intens Accum Rate
02/22/2017 23:13 Ice Warning 24.3F - 31F 32F 5 0% - - 99% 0 mhos 49 - None None - -
02/22/2017 23:03 Ice Warning 24.4F - 31F 32F 5 0% - - 99% 0 mhos 50 - None None - -
02/22/2017 23:00 Ice Warning 24.6F - 31F 32F 5 0% - - 99% 0 mhos 51 - None None - -
02/22/2017 22:53 Ice Warning 24.6F - 31F 32F 10 0% - - 99% 0 mhos 53 - None None - -
02/22/2017 22:45 Ice Warning 24.6F - 31F 32F 10 0% - - 99% 0 mhos 54 - None None - -
02/22/2017 22:43 Ice Warning 24.8F - 31F 32F 10 0% - - 99% 0 mhos 54 - None None - -
02/22/2017 22:33 Ice Warning 25.0F - 31F 32F 10 0% - - 99% 0 mhos 56 - None None - -
02/22/2017 22:30 Ice Warning 25.2F - 31F 32F 10 0% - - 99% 0 mhos 56 - None None - -
02/22/2017 22:23 Ice Warning 25.2F - 31F 32F 10 0% - - 99% 0 mhos 58 - None None - -
02/22/2017 22:15 Ice Warning 25.3F - 31F 32F 15 0% - - 99% 1 mhos 60 - None None - -
02/22/2017 22:13 Ice Warning 25.5F - 31F 32F 15 0% - - 99% 1 mhos 60 - None None - -
02/22/2017 22:03 Ice Warning 25.7F - 31F 32F 15 0% - - 99% 1 mhos 63 - None None - -
02/22/2017 22:00 Ice Warning 25.7F - 31F 32F 15 0% - - 99% 1 mhos 63 - None None - -
02/22/2017 21:53 Ice Warning 25.7F - 31F 32F 15 0% - - 99% 1 mhos 65 - None None - -
02/22/2017 21:45 Ice Warning 26.1F - 31F 32F 15 0% - - 99% 1 mhos 68 - None None - -
Date/Time
(MST)
Sf
Temp Chem Water Layer Surface Precipitation
Sfc Pvt Sub Frz Factor Pct Dpth DpthThk IcePct Cond Salin FI Type Intens Accum Rate
02/22/2017 21:43 Ice Warning 26.2F - 31F 32F 15 0% - - 99% 1 mhos 69 - None None - -
02/22/2017 21:32 Ice Warning 26.6F - 31F 32F 15 0% - - 99% 1 mhos 73 - None None - -
02/22/2017 21:30 Ice Warning 26.6F - 31F 32F 15 0% - - 99% 1 mhos 73 - None None - -
02/22/2017 21:22 Ice Warning 26.8F - 31F 32F 15 0% - - 99% 1 mhos 74 - None None - -
02/22/2017 21:15 Ice Warning 26.8F - 31F 32F 15 0% - - 99% 1 mhos 75 - None None - -
02/22/2017 21:12 Ice Warning 26.8F - 31F 32F 15 0% - - 99% 1 mhos 74 - None None - -
02/22/2017 21:02 Ice Warning 26.8F - 31F 32F 20 0% - - 99% 1 mhos 73 - None None - -
02/22/2017 21:00 Ice Warning 26.8F - 31F 32F 20 0% - - 99% 1 mhos 72 - None None - -
02/22/2017 20:52 Ice Warning 26.8F - 31F 32F 20 0% - - 99% 1 mhos 72 - None None - -
02/22/2017 20:45 Ice Warning 26.8F - 31F 32F 20 0% - - 99% 1 mhos 72 - None None - -
02/22/2017 20:42 Ice Warning 26.8F - 31F 32F 25 0% - - 99% 1 mhos 72 - None None - -
Change End Date:

Copyright © 1998-2015 Vaisala, Inc.
All Rights Reserved
Send comments about the data to:
SCAN Web ® is a registered trademark of Vaisala, Inc.
SCAN Web Version 6.0